Location: Unspecified
(0.0000°N, 0.0000°E)
Time: 22:47:10
(UTC+02:00)

NOAA 12 - Visible Passes

Search period start: 22 October 2017 00:00
Search period end: 31 October 2017 23:00
Orbit: 796 x 814 km, 98.6° (Epoch: 22 October)

Date Brightness Start Highest point End Pass type
(mag) Time Alt. Az. Time Alt. Az. Time Alt. Az.
22 Oct 4.6 21:11:05 10° S 21:16:17 61° WSW 21:21:29 10° NNW visible
23 Oct 4.0 20:46:07 10° SSE 20:51:21 68° ENE 20:56:36 10° N visible
24 Oct 4.7 20:21:43 10° SE 20:26:26 33° ENE 20:31:08 10° NNE visible
24 Oct 6.9 22:02:58 10° SW 22:05:56 15° WSW 22:08:55 10° WNW visible
25 Oct 5.9 21:36:28 10° SSW 21:41:02 30° WSW 21:45:37 10° NW visible
26 Oct 4.6 21:10:55 10° S 21:16:07 61° WSW 21:21:19 10° NNW visible
27 Oct 4.0 20:45:57 10° SSE 20:51:11 68° ENE 20:56:26 10° N visible
28 Oct 4.7 20:21:32 10° SE 20:26:16 34° ENE 20:31:00 10° NNE visible
28 Oct 6.9 22:02:47 10° SW 22:05:46 15° WSW 22:08:46 10° WNW visible
29 Oct 5.9 20:36:17 10° SSW 20:40:52 30° WSW 20:45:28 10° NW visible
30 Oct 4.6 20:10:44 10° S 20:15:57 61° WSW 20:21:10 10° NNW visible
31 Oct 4.0 19:45:46 10° SSE 19:51:01 68° ENE 19:56:17 10° N visible
